User: anonymous
Location: Unspecified
(0.0000°N, 0.0000°E)
Time: 16:57:09
(UTC+00:00)
Language:

SES 6 - Orbit

View from above orbital plane
View from above orbital plane
View from above satellite
View from above satellite

Ground track
Ground track

The orbit data is extracted from the following two-line orbital elements,

1 39172U 13026A   14204.18909662 -.00000279  00000-0  00000+0 0  2841
2 39172 000.0299 302.0680 0002219 198.9387 187.4022 01.00271920  4158
Epoch (UTC): 23 July 2014 04:32:17
Eccentricity: 0.0002219
inclination: 0.0299°
perigee height: 35777 km
apogee height: 35795 km
right ascension of ascending node: 302.0680°
argument of perigee: 198.9387°
revolutions per day: 1.00271920
mean anomaly at epoch: 187.4022°
orbit number at epoch: 415

The dashed part of the orbit path shows where the satellite is in the earth's shadow,  

DLR